Regional Weather Roundup
Issued by NWS

Home | Current Version | Previous Version | Graphics & Text | Print | Product List | Glossary On
Versions: 1 2 3 4 5 6 7 8 9 10 11 12 13 14 15 16 17 18 19 20 21 22 23 24 25 26 27 28 29 30 31 32 33 34 35 36 37 38 39 40 41 42 43 44 45 46 47 48 49 50
000
ASUS45 KSLC 262210
RWRUT

UTAH REGIONAL WEATHER ROUNDUP
NATIONAL WEATHER SERVICE SALT LAKE CITY UT
400 PM MDT FRI AUG 26 2016

UTZ001>011-023>025-262300-

NORTHERN UTAH

CITY           SKY/WX    TMP DP  RH WIND       PRES   REMARKS
BRIGHAM CITY     N/A     83  16   8 W10G17    29.98F
HILL AFB       PTSUNNY   79  33  18 NW14      30.02F
LOGAN          SUNNY     81  32  17 W8        29.98F
OGDEN          MOSUNNY   79  28  15 W10       29.99F
PROVO AIRPORT  PTSUNNY   84  46  26 SW14      29.97F
SALT LAKE CITY PTSUNNY   86  37  17 NW15      29.96F
VERNAL         CLOUDY    75  39  27 N8        30.07F
WENDOVER       SUNNY     82  27  13 SE9       29.98F
HEBER CITY     MOSUNNY   81  36  19 SW15      30.02F
WEST JORDAN    PTSUNNY   80  40  24 NW17      30.00S

$$

UTZ012>022-026-027-262300-

SOUTHERN/CENTRAL UTAH

CITY           SKY/WX    TMP DP  RH WIND       PRES   REMARKS
BLANDING       SUNNY     74  44  34 CALM      30.23F
BRYCE CANYON   LGT RAIN  50  42  74 NW9       30.28F
CEDAR CITY     MOSUNNY   79  41  25 SW20G29   30.09F
MILFORD        CLOUDY    80  34  19 VRB5      30.02F THUNDER
MOAB/CYNLANDS  MOSUNNY   81  43  26 S7        30.02F
PRICE          PTSUNNY   72  44  36 SE14      30.10F
ST GEORGE      PTCLDY    88  52  29 SE23      29.97F THUNDER

$$

REGIONAL REPORTS     COLORADO/ARIZONA

CITY           SKY/WX    TMP DP  RH WIND       PRES   REMARKS
CRAIG, CO      CLOUDY    72  35  25 S23G29    30.11F
GRAND JUNCTION SUNNY     77  48  35 VRB3      30.07F
RIFLE          SUNNY     78  42  27 W17G28    30.09F
MONTROSE       SUNNY     76  41  28 NE6       30.13F
CORTEZ         SUNNY     73  47  39 W9        30.17F
PAGE, AZ       PTSUNNY   80  53  39 NE6       30.05F
GRAND CANYON   CLOUDY    68  47  46 S14G23    30.23F
KINGMAN        PTSUNNY   88  48  25 SW13G21   30.00F
FLAGSTAFF      CLOUDY    54  52  93 CALM      30.31S

$$

REGIONAL REPORTS    NEVADA/IDAHO/WYOMING

CITY           SKY/WX    TMP DP  RH WIND       PRES   REMARKS
LAS VEGAS, NV  MOSUNNY   96  40  14 VRB5G16   29.83F HX  92
ELY            MOSUNNY   82  20  10 NW12      30.09F
ELKO           PTSUNNY   80  15   8 W12       30.04F
POCATELLO, ID  MOSUNNY   77  29  17 NW12      30.01F
BURLEY         PTSUNNY   76  32  20 W13G21    29.99F
EVANSTON, WY   CLOUDY    73  28  18 W21G35    30.12F
ROCK SPRINGS   CLOUDY    65  31  28 SW31G40   30.12R

$$



USA.gov is the U.S. government's official web portal to all federal, state and local government web resources and services.